CT1AKV-10 Estrada Real PT current weather conditions

sailwx.info

Wind from 309 at 2 knots gusting 6

Air temperature 35.6° C
Dewpoint -0.8° C

Last reported at 2015-Aug-03 12:45 UTC.
Time now 2015-Aug-03 13:13 UTC

Location: N 39°11' W 008°44'.
View on Google Maps.

See reports from other nearby stations

  
Tides and Currents Weather Stations Pressure Air Temp Water Temp Dewpoint Dewpoint Depression Visibility Wind Speed Wind Dir Waves Ship Positions
date/time (UTC)wind fromknots sea level pressurealtimeterstation pressurevisibilityair tempwater tempwave heightnotes
2015-Aug-03 12:45 309 2 gusting 6 35.6
2015-Aug-03 12:30 352 1 gusting 6 36.1
2015-Aug-03 12:15 292 1 gusting 7 35.6
2015-Aug-03 12:00 330 1 gusting 7 35.6
2015-Aug-03 11:45 332 2 gusting 7 35.0
2015-Aug-03 11:30 313 2 gusting 9 34.4
2015-Aug-03 11:15 338 1 gusting 6 33.9
2015-Aug-03 11:00 342 2 gusting 6 32.8
2015-Aug-03 10:45 311 1 gusting 6 32.2
2015-Aug-03 10:30 324 2 gusting 7 31.1
2015-Aug-03 10:15 321 1 gusting 5 31.1
2015-Aug-03 10:00 348 2 gusting 7 30.6
2015-Aug-03 09:45 328 1 gusting 7 30.6
2015-Aug-03 09:30 271 0 gusting 4 29.4
2015-Aug-03 09:15 050 27.2
2015-Aug-03 09:00 191 26.7
2015-Aug-03 08:45 351 25.6
2015-Aug-03 08:30 316 2 gusting 6 26.1
2015-Aug-03 08:15 333 0 gusting 3 25.6
2015-Aug-03 08:00 305 0 gusting 3 23.9
2015-Aug-03 07:45 301 1 gusting 4 21.7
2015-Aug-03 07:30 305 1 gusting 3 19.4
2015-Aug-03 07:15 328 1 gusting 4 18.9
2015-Aug-03 07:00 310 0 gusting 3 18.3
2015-Aug-03 06:45 331 17.8
2015-Aug-03 06:30 308 0 gusting 3 17.2
2015-Aug-03 06:15 317 0 gusting 4 16.7
2015-Aug-03 06:00 309 1 gusting 5 16.1
2015-Aug-03 05:45 309 0 gusting 3 16.1
2015-Aug-03 05:30 311 0 gusting 3 16.1
2015-Aug-03 05:15 291 1 gusting 4 16.1
2015-Aug-03 05:00 332 0 gusting 3 16.1
2015-Aug-03 04:45 309 1 gusting 4 16.1
2015-Aug-03 04:30 303 1 gusting 4 16.1
2015-Aug-03 04:15 327 1 gusting 5 16.7
2015-Aug-03 04:00 297 1 gusting 6 16.7
2015-Aug-03 03:45 332 2 gusting 6 16.7
2015-Aug-03 03:30 317 0 gusting 3 16.7
2015-Aug-03 03:15 299 0 gusting 3 16.7
2015-Aug-03 03:00 302 0 gusting 4 16.7
2015-Aug-03 02:45 300 1 gusting 3 16.7
2015-Aug-03 02:30 293 1 gusting 6 16.7
2015-Aug-03 02:15 272 1 gusting 5 16.7
2015-Aug-03 02:00 304 1 gusting 5 16.7
2015-Aug-03 01:45 326 1 gusting 6 16.7
2015-Aug-03 01:30 292 2 gusting 6 17.2
2015-Aug-03 01:15 302 2 gusting 6 17.2
2015-Aug-03 01:00 308 2 gusting 7 17.2
2015-Aug-03 00:45 302 2 gusting 6 17.2
2015-Aug-03 00:30 305 2 gusting 6 17.2
2015-Aug-03 00:15 288 2 gusting 6 17.2
2015-Aug-03 00:00 314 3 gusting 7 17.8
2015-Aug-02 23:45 294 2 gusting 6 17.8
2015-Aug-02 23:30 300 2 gusting 6 17.8
2015-Aug-02 23:15 280 2 gusting 6 17.8
2015-Aug-02 23:00 279 2 gusting 6 18.3
2015-Aug-02 22:45 295 2 gusting 8 18.3
2015-Aug-02 22:30 329 2 gusting 6 18.3
2015-Aug-02 22:15 324 2 gusting 6 18.3
2015-Aug-02 22:00 278 2 gusting 6 18.9
2015-Aug-02 21:45 316 3 gusting 7 18.9
2015-Aug-02 21:30 318 3 gusting 7 19.4
2015-Aug-02 21:15 298 3 gusting 7 20.0
2015-Aug-02 21:00 296 2 gusting 7 20.6
2015-Aug-02 20:45 310 3 gusting 9 21.1
2015-Aug-02 20:30 321 3 gusting 9 21.7
2015-Aug-02 20:15 310 3 gusting 9 21.7
2015-Aug-02 20:00 300 4 gusting 12 22.8
2015-Aug-02 19:45 298 3 gusting 9 23.3
2015-Aug-02 19:30 309 3 gusting 9 24.4
2015-Aug-02 19:15 290 3 gusting 9 25.0
2015-Aug-02 19:00 315 3 gusting 9 27.2
2015-Aug-02 18:45 295 4 gusting 10 28.3
2015-Aug-02 18:30 295 4 gusting 10 28.9
2015-Aug-02 18:15 301 4 gusting 9 30.0
2015-Aug-02 18:00 312 6 gusting 13 30.6
2015-Aug-02 17:45 298 4 gusting 9 31.7
2015-Aug-02 17:30 314 4 gusting 11 31.7
2015-Aug-02 17:15 296 4 gusting 13 32.8
2015-Aug-02 17:00 308 4 gusting 9 32.8
2015-Aug-02 16:45 299 4 gusting 9 33.3
2015-Aug-02 16:30 325 4 gusting 10 33.3
2015-Aug-02 16:15 300 4 gusting 12 34.4
2015-Aug-02 16:00 309 3 gusting 10 34.4
2015-Aug-02 15:45 320 4 gusting 11 35.0
2015-Aug-02 15:30 297 4 gusting 11 35.0
2015-Aug-02 15:15 339 5 gusting 13 35.6
2015-Aug-02 15:00 304 4 gusting 10 36.1
2015-Aug-02 14:45 328 3 gusting 8 36.7
2015-Aug-02 14:30 326 4 gusting 10 36.7
2015-Aug-02 14:15 314 3 gusting 8 37.2
2015-Aug-02 14:00 161 1 gusting 6 37.8
2015-Aug-02 13:45 277 1 gusting 6 37.8
2015-Aug-02 13:30 268 1 gusting 6 37.2
2015-Aug-02 13:15 298 1 gusting 7 36.7
2015-Aug-02 13:00 254 2 gusting 7 36.7
2015-Aug-02 12:45 305 1 gusting 5 36.1
2015-Aug-02 12:30 252 1 gusting 5 35.6
2015-Aug-02 12:15 304 2 gusting 8 35.0
2015-Aug-02 12:00 296 2 gusting 6 34.4
2015-Aug-02 11:45 289 2 gusting 6 33.9
2015-Aug-02 11:30 312 1 gusting 5 33.3
2015-Aug-02 11:15 317 1 gusting 6 32.2
2015-Aug-02 11:00 296 1 gusting 4 31.7
2015-Aug-02 10:45 300 1 gusting 6 30.0
2015-Aug-02 10:30 296 1 gusting 5 29.4
2015-Aug-02 10:15 325 1 gusting 4 28.3
2015-Aug-02 10:00 341 1 gusting 5 27.2
2015-Aug-02 09:45 317 1 gusting 6 26.1
2015-Aug-01 21:00 312 4 gusting 9 20.0
2015-Aug-01 20:45 308 3 gusting 7 20.0
2015-Aug-01 20:30 313 3 gusting 11 20.6
2015-Aug-01 20:15 324 4 gusting 11 21.1
2015-Aug-01 20:00 311 3 gusting 9 21.7
2015-Aug-01 19:45 302 4 gusting 10 22.2
2015-Aug-01 19:30 310 5 gusting 13 23.3
2015-Aug-01 19:15 304 4 gusting 11 24.4
2015-Aug-01 19:00 303 5 gusting 12 26.1
2015-Aug-01 18:45 317 4 gusting 12 27.2
2015-Aug-01 18:30 317 6 gusting 13 27.8
2015-Aug-01 18:15 314 6 gusting 13 28.9
2015-Aug-01 18:00 320 6 gusting 14 29.4
2015-Aug-01 17:45 310 5 gusting 12 30.0
2015-Aug-01 17:30 289 6 gusting 17 30.0
2015-Aug-01 17:15 305 6 gusting 14 30.6
2015-Aug-01 17:00 303 6 gusting 13 30.6
2015-Aug-01 16:45 294 6 gusting 14 31.7
2015-Aug-01 16:30 307 6 gusting 15 32.2
2015-Aug-01 16:15 317 5 gusting 13 32.2
2015-Aug-01 16:00 291 6 gusting 14 32.8
2015-Aug-01 15:45 312 5 gusting 13 33.3
2015-Aug-01 15:15 314 5 gusting 11 35.0
2015-Aug-01 15:00 317 3 gusting 10 35.6
2015-Aug-01 14:45 287 4 gusting 9 35.6
2015-Aug-01 14:30 291 2 gusting 9 36.1
2015-Aug-01 14:15 325 2 gusting 7 36.1
2015-Aug-01 14:00 311 3 gusting 8 35.6
2015-Aug-01 13:45 255 1 gusting 9 35.6
2015-Aug-01 13:30 099 0 gusting 4 36.7
2015-Aug-01 13:15 331 1 gusting 4 36.1
2015-Aug-01 13:00 074 1 gusting 5 36.1